Weather Roundup
Issued by NWS

Home | Current Version | Previous Version | Graphics & Text | Print | Product List | Glossary Off
Versions: 1 2 3 4 5 6 7 8 9 10 11 12 13 14 15 16 17 18 19 20 21 22 23 24 25 26 27 28 29 30 31 32 33 34 35 36 37 38 39 40 41 42 43 44 45 46 47 48 49 50

000
NZUS93 KARX 041659
HRRWXR

CURRENT HOURLY OBSERVATIONS ACROSS
MUCH OF THE UPPER MISSISSIPPI VALLEY
NATIONAL WEATHER SERVICE LA CROSSE WI
1200 PM CDT FRI SEP 04 2015


...SOUTHEAST MINNESOTA...


CITY           SKY/WX    TMP DP  RH WIND       PRES   REMARKS
ROCHESTER      SUNNY     83  73  72 SE10      29.98F
ROCHESTER/MAYO FAIR      82  71  68 E9        29.97F
WINONA         SUNNY     81  68  65 E8        29.98F
AUSTIN         SUNNY     82  73  74 SE10      29.96S
ALBERT LEA     SUNNY     82  72  69 SE9       29.94F
DODGE CENTER   SUNNY     81  72  74 SE9       29.97S
PRESTON        SUNNY     81  70  68 SE8       30.00F
OWATONNA       SUNNY     84  72  65 S12       29.94S
FARIBAULT      SUNNY     82  73  74 SE12      29.93S
$$

...ELSEWHERE IN MINNESOTA...


CITY           SKY/WX    TMP DP  RH WIND       PRES   REMARKS
MINNEAPOLIS    PTSUNNY   82  71  69 SE13      29.92F
INTNL FALLS    SUNNY     80  67  64 SE13G23   29.93F
DULUTH         SUNNY     71  63  75 E15       30.00R
RED WING       SUNNY     82  70  65 SE13      29.94F
REDWOOD FALLS  PTSUNNY   87  69  54 SW13      29.89R HX  91
MANKATO        SUNNY     84  72  65 S12       29.90S
WORTHINGTON    PTSUNNY   82  70  65 S12       29.91S
FAIRMONT       MOSUNNY   82  68  61 S10       29.91R
$$

...SOUTHWEST WISCONSIN...


CITY           SKY/WX    TMP DP  RH WIND       PRES   REMARKS
LA CROSSE      MOSUNNY   83  70  64 S6        29.99S
PRAIRIE DU CHI SUNNY     82  69  63 SE6       29.99F
BOSCOBEL       SUNNY     85  70  60 VRB3      30.00F
LONE ROCK      NOT AVBL
PLATTEVILLE    SUNNY     81  74  78 SE3       30.03S
FORT MC COY    SUNNY     79  65  61 SE7       30.02F
VIROQUA        FAIR      80  70  71 SE7       30.04S
WIS DELLS      PTSUNNY   73  64  73 E7        30.05S
$$

...ELSEWHERE IN WISCONSIN...


CITY           SKY/WX    TMP DP  RH WIND       PRES   REMARKS
MILWAUKEE      MOSUNNY   74  65  73 NE6       30.04F
MADISON        PTSUNNY   75  66  73 CALM      30.04S
GREEN BAY      SUNNY     75  66  73 CALM      30.05R
EAU CLAIRE     MOSUNNY   80  68  66 SE9       29.99F
BLACK RVR FLS  PTSUNNY   79  65  61 E7        30.01F
MEDFORD        SUNNY     72  65  81 SE8       30.07S
WAUSAU         PTSUNNY   73  65  75 S6        30.06S
WIS RAPIDS     CLOUDY    70  63  78 E6        30.07S
MARSHFIELD     CLOUDY    70  63  78 SE9       30.07S
RICE LAKE      MOSUNNY   76  66  72 SE12      30.02S
$$

...NORTHEAST IOWA...


CITY           SKY/WX    TMP DP  RH WIND       PRES   REMARKS
DECORAH        SUNNY     81  72  74 SE5       29.99F
MASON CITY     SUNNY     84  73  69 SE10      29.96F HX  90
CHARLES CITY   SUNNY     84  75  74 VRB7      29.98S HX  92
OELWEIN        MOSUNNY   84  73  70 S7        30.00F HX  91
$$

...ELSEWHERE IN IOWA...


CITY           SKY/WX    TMP DP  RH WIND       PRES   REMARKS
DES MOINES     PTSUNNY   88  71  57 S13       29.96S HX  94
IOWA CITY      SUNNY     86  71  60 SW8       30.01F HX  91
FORT DODGE     PTSUNNY   81  70  69 S9        29.94F
$$

...NORTHERN ILLINOIS...


CITY           SKY/WX    TMP DP  RH WIND       PRES   REMARKS
CHICAGO-OHARE  PTSUNNY   78  67  68 CALM      30.03S
CHICAGO-MIDWAY MOSUNNY   84  68  58 CALM      30.03S
MOLINE         MOSUNNY   90  69  50 NW6       30.01S HX  94
ROCKFORD       MOSUNNY   82  70  66 S7        30.04F
PEORIA         SUNNY     92  67  43 VRB3      30.02F HX  95
$$

NOTE: "FAIR" INDICATES FEW OR NO CLOUDS BELOW 12,000 FEET WITH NO
SIGNIFICANT WEATHER AND/OR OBSTRUCTIONS TO VISIBILITY. WIND
SPEEDS ARE IN MILES-PER-HOUR.



USA.gov is the U.S. government's official web portal to all federal, state and local government web resources and services.